Time,TemperatureF,DewpointF,PressureIn,WindDirection,WindDirectionDegrees,WindSpeedMPH,WindSpeedGustMPH,Humidity,HourlyPrecipIn,Conditions,Clouds,dailyrainin,SoftwareType,DateUTC
2013-05-03 00:02:00,43.0,40.0,30.09,NNE,21,10.0,12.0,89,0.00,,,0.01,,2013-05-03 05:02:00,
2013-05-03 00:12:00,43.0,40.0,30.09,NNE,21,10.0,12.0,89,0.00,,,0.01,,2013-05-03 05:12:00,
2013-05-03 00:21:00,42.0,40.0,30.07,NNE,24,3.0,11.0,92,0.04,,,0.05,,2013-05-03 05:21:00,
2013-05-03 00:32:00,42.0,40.0,30.04,NNE,13,5.0,13.0,93,0.05,,,0.06,,2013-05-03 05:32:00,
2013-05-03 00:42:00,42.0,40.0,30.04,NNE,13,5.0,13.0,93,0.05,,,0.06,,2013-05-03 05:42:00,
2013-05-03 00:52:00,42.0,40.0,30.05,NNE,19,11.0,18.0,93,0.06,,,0.07,,2013-05-03 05:52:00,
2013-05-03 01:01:00,42.0,40.0,30.06,North,5,4.0,12.0,93,0.07,,,0.08,,2013-05-03 06:01:00,
2013-05-03 01:11:00,42.0,40.0,30.06,North,5,4.0,12.0,93,0.07,,,0.08,,2013-05-03 06:11:00,
2013-05-03 01:21:00,42.0,40.0,30.05,NE,40,4.0,15.0,94,0.05,,,0.10,,2013-05-03 06:21:00,
2013-05-03 01:32:00,42.0,40.0,30.06,NNE,22,4.0,9.0,94,0.04,,,0.10,,2013-05-03 06:32:00,
2013-05-03 01:42:00,42.0,40.0,30.06,NNE,22,4.0,9.0,94,0.04,,,0.10,,2013-05-03 06:42:00,
2013-05-03 01:52:00,41.0,39.0,30.05,NNE,18,2.0,9.0,94,0.03,,,0.11,,2013-05-03 06:52:00,
2013-05-03 02:01:00,41.0,39.0,30.04,North,11,6.0,15.0,94,0.02,,,0.11,,2013-05-03 07:01:00,
2013-05-03 02:11:00,41.0,39.0,30.04,North,11,6.0,15.0,94,0.02,,,0.11,,2013-05-03 07:11:00,
2013-05-03 02:21:00,41.0,39.0,30.03,NNE,16,4.0,13.0,94,0.02,,,0.12,,2013-05-03 07:21:00,
2013-05-03 02:31:00,41.0,39.0,30.03,North,5,2.0,10.0,94,0.02,,,0.12,,2013-05-03 07:31:00,
2013-05-03 02:42:00,41.0,39.0,30.03,North,5,2.0,10.0,94,0.02,,,0.12,,2013-05-03 07:42:00,
2013-05-03 02:52:00,41.0,39.0,30.03,North,11,1.0,13.0,94,0.02,,,0.13,,2013-05-03 07:52:00,
2013-05-03 03:01:00,41.0,39.0,30.03,NNE,20,4.0,11.0,94,0.02,,,0.13,,2013-05-03 08:01:00,
2013-05-03 03:11:00,41.0,39.0,30.03,NNE,20,4.0,11.0,94,0.02,,,0.13,,2013-05-03 08:11:00,
2013-05-03 03:21:00,41.0,40.0,30.02,NNE,19,6.0,9.0,95,0.02,,,0.14,,2013-05-03 08:21:00,
2013-05-03 03:32:00,41.0,40.0,30.02,NNE,15,3.0,9.0,95,0.03,,,0.15,,2013-05-03 08:32:00,
2013-05-03 03:42:00,41.0,40.0,30.02,NNE,15,3.0,9.0,95,0.03,,,0.15,,2013-05-03 08:42:00,
2013-05-03 03:53:00,41.0,40.0,30.02,North,5,4.0,8.0,95,0.03,,,0.16,,2013-05-03 08:53:00,
2013-05-03 04:01:00,41.0,40.0,30.01,NNE,17,5.0,10.0,95,0.03,,,0.17,,2013-05-03 09:01:00,
2013-05-03 04:12:00,41.0,40.0,30.01,NNE,17,5.0,10.0,95,0.03,,,0.17,,2013-05-03 09:12:00,
2013-05-03 04:21:00,40.0,39.0,30.00,NE,36,2.0,12.0,95,0.04,,,0.18,,2013-05-03 09:21:00,
2013-05-03 04:32:00,40.0,39.0,30.00,NE,36,2.0,12.0,95,0.04,,,0.18,,2013-05-03 09:32:00,
2013-05-03 04:42:00,40.0,39.0,30.00,NE,36,2.0,12.0,95,0.04,,,0.18,,2013-05-03 09:42:00,
2013-05-03 04:53:00,40.0,39.0,30.01,NNE,17,5.0,10.0,95,0.02,,,0.18,,2013-05-03 09:53:00,
2013-05-03 05:02:00,40.0,39.0,30.00,NE,40,1.0,10.0,95,0.02,,,0.19,,2013-05-03 10:02:00,
2013-05-03 05:12:00,40.0,39.0,30.00,NE,40,1.0,10.0,95,0.02,,,0.19,,2013-05-03 10:12:00,
2013-05-03 05:22:00,40.0,39.0,29.99,North,355,5.0,14.0,95,0.02,,,0.20,,2013-05-03 10:22:00,
2013-05-03 05:32:00,40.0,39.0,29.98,NNW,348,7.0,13.0,95,0.03,,,0.21,,2013-05-03 10:32:00,
2013-05-03 05:42:00,40.0,39.0,29.98,NNW,348,7.0,13.0,95,0.03,,,0.21,,2013-05-03 10:42:00,
2013-05-03 05:52:00,39.0,38.0,29.99,NNE,24,0.0,9.0,95,0.04,,,0.22,,2013-05-03 10:52:00,
2013-05-03 06:02:00,39.0,38.0,29.99,NNE,24,0.0,9.0,95,0.04,,,0.22,,2013-05-03 11:02:00,
2013-05-03 06:11:00,39.0,38.0,29.99,NNE,24,0.0,9.0,95,0.04,,,0.22,,2013-05-03 11:11:00,
2013-05-03 06:22:00,39.0,38.0,29.98,NNE,29,9.0,9.0,96,0.02,,,0.22,,2013-05-03 11:22:00,
2013-05-03 06:32:00,39.0,38.0,29.97,NNE,23,8.0,12.0,96,0.02,,,0.23,,2013-05-03 11:32:00,
2013-05-03 06:42:00,39.0,38.0,29.97,NNE,23,8.0,12.0,96,0.02,,,0.23,,2013-05-03 11:42:00,
2013-05-03 06:51:00,39.0,38.0,29.98,NE,34,6.0,10.0,96,0.02,,,0.23,,2013-05-03 11:51:00,
2013-05-03 07:01:00,40.0,39.0,29.98,North,9,8.0,9.0,96,0.01,,,0.23,,2013-05-03 12:01:00,
2013-05-03 07:11:00,40.0,39.0,29.98,North,9,8.0,9.0,96,0.01,,,0.23,,2013-05-03 12:11:00,
2013-05-03 07:21:00,40.0,39.0,29.98,NNE,22,6.0,7.0,96,0.02,,,0.24,,2013-05-03 12:21:00,
2013-05-03 07:32:00,40.0,39.0,29.98,NNE,21,8.0,10.0,96,0.02,,,0.24,,2013-05-03 12:32:00,
2013-05-03 07:42:00,40.0,39.0,29.98,NNE,21,8.0,10.0,96,0.02,,,0.24,,2013-05-03 12:42:00,
2013-05-03 07:51:00,40.0,39.0,29.98,North,9,5.0,12.0,96,0.01,,,0.24,,2013-05-03 12:51:00,
2013-05-03 08:01:00,40.0,39.0,29.98,NE,49,4.0,9.0,95,0.01,,,0.24,,2013-05-03 13:01:00,
2013-05-03 08:11:00,40.0,39.0,29.98,NE,49,4.0,9.0,95,0.01,,,0.24,,2013-05-03 13:11:00,
2013-05-03 08:22:00,40.0,39.0,29.98,NE,36,5.0,10.0,96,0.02,,,0.26,,2013-05-03 13:22:00,
2013-05-03 08:32:00,40.0,39.0,29.96,NNE,24,7.0,11.0,96,0.03,,,0.27,,2013-05-03 13:32:00,
2013-05-03 08:42:00,40.0,39.0,29.96,NNE,24,7.0,11.0,96,0.03,,,0.27,,2013-05-03 13:42:00,
2013-05-03 08:52:00,41.0,40.0,29.95,NNE,32,5.0,11.0,96,0.04,,,0.28,,2013-05-03 13:52:00,
2013-05-03 09:02:00,41.0,40.0,29.95,NE,47,3.0,11.0,96,0.03,,,0.28,,2013-05-03 14:02:00,
2013-05-03 09:11:00,41.0,40.0,29.95,NE,47,3.0,11.0,96,0.03,,,0.28,,2013-05-03 14:11:00,
2013-05-03 09:22:00,42.0,41.0,29.94,North,355,4.0,8.0,96,0.04,,,0.30,,2013-05-03 14:22:00,
2013-05-03 09:32:00,42.0,41.0,29.94,North,9,9.0,10.0,96,0.03,,,0.30,,2013-05-03 14:32:00,
2013-05-03 09:42:00,42.0,41.0,29.94,North,9,9.0,10.0,96,0.03,,,0.30,,2013-05-03 14:42:00,
2013-05-03 09:52:00,43.0,42.0,29.93,ENE,74,5.0,11.0,96,0.03,,,0.31,,2013-05-03 14:52:00,
2013-05-03 10:01:00,43.0,42.0,29.93,NE,53,4.0,11.0,96,0.03,,,0.31,,2013-05-03 15:01:00,
2013-05-03 10:11:00,43.0,42.0,29.93,NE,53,4.0,11.0,96,0.03,,,0.31,,2013-05-03 15:11:00,
2013-05-03 10:22:00,43.0,42.0,29.93,North,360,8.0,10.0,96,0.03,,,0.32,,2013-05-03 15:22:00,
2013-05-03 10:32:00,43.0,42.0,29.93,NNE,26,5.0,11.0,96,0.04,,,0.34,,2013-05-03 15:32:00,
2013-05-03 10:43:00,43.0,42.0,29.93,NNE,26,5.0,11.0,96,0.04,,,0.34,,2013-05-03 15:43:00,
2013-05-03 10:53:00,44.0,43.0,29.91,NNE,22,3.0,10.0,96,0.04,,,0.35,,2013-05-03 15:53:00,
2013-05-03 11:03:00,44.0,43.0,29.91,NNE,19,7.0,13.0,96,0.04,,,0.35,,2013-05-03 16:03:00,
2013-05-03 11:12:00,44.0,43.0,29.91,NNE,19,7.0,13.0,96,0.04,,,0.35,,2013-05-03 16:12:00,
2013-05-03 11:22:00,44.0,43.0,29.92,NE,48,5.0,11.0,96,0.04,,,0.36,,2013-05-03 16:22:00,
2013-05-03 11:32:00,44.0,43.0,29.92,NE,51,4.0,10.0,97,0.05,,,0.38,,2013-05-03 16:32:00,
2013-05-03 11:42:00,44.0,43.0,29.92,NE,51,4.0,10.0,97,0.05,,,0.38,,2013-05-03 16:42:00,
2013-05-03 11:52:00,44.0,43.0,29.91,East,98,9.0,10.0,97,0.05,,,0.39,,2013-05-03 16:52:00,
2013-05-03 12:02:00,44.0,43.0,29.91,NNE,19,1.0,8.0,97,0.13,,,0.48,,2013-05-03 17:02:00,
2013-05-03 12:12:00,44.0,43.0,29.91,NNE,19,1.0,8.0,97,0.13,,,0.48,,2013-05-03 17:12:00,
2013-05-03 12:23:00,44.0,43.0,29.91,NNE,19,1.0,8.0,97,0.13,,,0.48,,2013-05-03 17:23:00,
2013-05-03 12:32:00,45.0,44.0,29.91,NE,43,2.0,7.0,97,0.11,,,0.50,,2013-05-03 17:32:00,
2013-05-03 12:42:00,45.0,44.0,29.91,NE,43,2.0,7.0,97,0.11,,,0.50,,2013-05-03 17:42:00,
2013-05-03 12:52:00,45.0,44.0,29.91,NNE,19,2.0,6.0,97,0.12,,,0.52,,2013-05-03 17:52:00,
2013-05-03 13:01:00,45.0,44.0,29.91,ENE,69,3.0,5.0,97,0.05,,,0.53,,2013-05-03 18:01:00,
2013-05-03 13:12:00,45.0,44.0,29.91,ENE,69,3.0,5.0,97,0.05,,,0.53,,2013-05-03 18:12:00,
2013-05-03 13:21:00,45.0,44.0,29.91,ENE,69,3.0,5.0,97,0.05,,,0.53,,2013-05-03 18:21:00,
2013-05-03 13:32:00,46.0,45.0,29.90,NE,53,3.0,7.0,97,0.06,,,0.56,,2013-05-03 18:32:00,
2013-05-03 13:42:00,46.0,45.0,29.90,NE,53,3.0,7.0,97,0.06,,,0.56,,2013-05-03 18:42:00,
2013-05-03 13:52:00,46.0,45.0,29.89,ENE,70,3.0,7.0,97,0.06,,,0.58,,2013-05-03 18:52:00,
2013-05-03 14:01:00,46.0,45.0,29.89,ENE,70,3.0,7.0,97,0.06,,,0.58,,2013-05-03 19:01:00,
2013-05-03 14:11:00,46.0,45.0,29.89,ENE,70,3.0,7.0,97,0.06,,,0.58,,2013-05-03 19:11:00,
2013-05-03 14:21:00,47.0,46.0,29.89,NNE,27,5.0,7.0,97,0.08,,,0.62,,2013-05-03 19:21:00,
2013-05-03 14:32:00,47.0,46.0,29.88,NNE,17,3.0,7.0,98,0.06,,,0.62,,2013-05-03 19:32:00,
2013-05-03 14:42:00,47.0,46.0,29.88,NNE,17,3.0,7.0,98,0.06,,,0.62,,2013-05-03 19:42:00,
2013-05-03 14:52:00,48.0,47.0,29.88,NNE,17,5.0,8.0,97,0.04,,,0.62,,2013-05-03 19:52:00,
2013-05-03 15:02:00,48.0,47.0,29.88,NNE,25,3.0,6.0,97,0.01,,,0.62,,2013-05-03 20:02:00,
2013-05-03 15:11:00,48.0,47.0,29.88,NNE,25,3.0,6.0,97,0.01,,,0.62,,2013-05-03 20:11:00,
2013-05-03 15:21:00,49.0,48.0,29.88,NE,39,2.0,5.0,98,0.00,,,0.62,,2013-05-03 20:21:00,
2013-05-03 15:31:00,49.0,48.0,29.88,NE,39,2.0,5.0,98,0.00,,,0.62,,2013-05-03 20:31:00,
2013-05-03 15:42:00,49.0,48.0,29.88,NE,39,2.0,5.0,98,0.00,,,0.62,,2013-05-03 20:42:00,
2013-05-03 15:52:00,50.0,49.0,29.87,NE,42,2.0,6.0,98,0.00,,,0.62,,2013-05-03 20:52:00,
2013-05-03 16:01:00,50.0,49.0,29.87,East,92,4.0,8.0,97,0.00,,,0.62,,2013-05-03 21:01:00,
2013-05-03 16:11:00,50.0,49.0,29.87,East,92,4.0,8.0,97,0.00,,,0.62,,2013-05-03 21:11:00,
2013-05-03 16:21:00,50.0,49.0,29.86,NE,53,1.0,7.0,97,0.00,,,0.62,,2013-05-03 21:21:00,
2013-05-03 16:33:00,50.0,49.0,29.85,NNE,16,3.0,9.0,97,0.00,,,0.62,,2013-05-03 21:33:00,
2013-05-03 16:42:00,50.0,49.0,29.85,NNE,16,3.0,9.0,97,0.00,,,0.62,,2013-05-03 21:42:00,
2013-05-03 16:53:00,51.0,50.0,29.85,ENE,59,2.0,8.0,98,0.01,,,0.63,,2013-05-03 21:53:00,
2013-05-03 17:02:00,51.0,50.0,29.85,NNE,23,2.0,8.0,98,0.02,,,0.64,,2013-05-03 22:02:00,
2013-05-03 17:12:00,51.0,50.0,29.85,NNE,23,2.0,8.0,98,0.02,,,0.64,,2013-05-03 22:12:00,
2013-05-03 17:22:00,51.0,50.0,29.84,NNE,24,6.0,8.0,98,0.02,,,0.64,,2013-05-03 22:22:00,
2013-05-03 17:32:00,51.0,50.0,29.84,NNE,26,5.0,10.0,98,0.02,,,0.64,,2013-05-03 22:32:00,
2013-05-03 17:42:00,51.0,50.0,29.84,NNE,26,5.0,10.0,98,0.02,,,0.64,,2013-05-03 22:42:00,
2013-05-03 17:52:00,52.0,51.0,29.85,NNE,15,3.0,9.0,98,0.02,,,0.65,,2013-05-03 22:52:00,
2013-05-03 18:02:00,52.0,51.0,29.86,ENE,69,4.0,13.0,98,0.01,,,0.65,,2013-05-03 23:02:00,
2013-05-03 18:11:00,52.0,51.0,29.86,ENE,69,4.0,13.0,98,0.01,,,0.65,,2013-05-03 23:11:00,
2013-05-03 18:21:00,52.0,51.0,29.85,NNE,22,4.0,9.0,98,0.02,,,0.66,,2013-05-03 23:21:00,
2013-05-03 18:31:00,52.0,51.0,29.84,NNE,24,5.0,10.0,98,0.03,,,0.67,,2013-05-03 23:31:00,
2013-05-03 18:41:00,52.0,51.0,29.84,NNE,24,5.0,10.0,98,0.03,,,0.67,,2013-05-03 23:41:00,
2013-05-03 18:52:00,52.0,51.0,29.83,NNE,16,6.0,9.0,98,0.02,,,0.67,,2013-05-03 23:52:00,
2013-05-03 19:01:00,52.0,51.0,29.83,NNE,16,6.0,9.0,98,0.02,,,0.67,,2013-05-04 00:01:00,
2013-05-03 19:11:00,52.0,51.0,29.83,NNE,16,6.0,9.0,98,0.02,,,0.67,,2013-05-04 00:11:00,
2013-05-03 19:22:00,52.0,51.0,29.83,ENE,60,6.0,10.0,98,0.00,,,0.66,,2013-05-04 00:22:00,
2013-05-03 19:31:00,52.0,51.0,29.83,NE,55,5.0,9.0,98,0.00,,,0.66,,2013-05-04 00:31:00,
2013-05-03 19:42:00,52.0,51.0,29.83,NE,55,5.0,9.0,98,0.00,,,0.66,,2013-05-04 00:42:00,
2013-05-03 19:52:00,52.0,51.0,29.83,NNE,29,6.0,10.0,98,0.00,,,0.66,,2013-05-04 00:52:00,
2013-05-03 20:01:00,52.0,51.0,29.83,NE,36,5.0,9.0,98,0.00,,,0.66,,2013-05-04 01:01:00,
2013-05-03 20:11:00,52.0,51.0,29.83,NE,36,5.0,9.0,98,0.00,,,0.66,,2013-05-04 01:11:00,
2013-05-03 20:21:00,52.0,51.0,29.83,ENE,71,4.0,12.0,97,0.00,,,0.66,,2013-05-04 01:21:00,
2013-05-03 20:31:00,52.0,51.0,29.83,NNE,28,3.0,8.0,97,0.00,,,0.66,,2013-05-04 01:31:00,
2013-05-03 20:41:00,52.0,51.0,29.83,NNE,28,3.0,8.0,97,0.00,,,0.66,,2013-05-04 01:41:00,
2013-05-03 20:52:00,52.0,51.0,29.83,NE,41,5.0,9.0,97,0.00,,,0.66,,2013-05-04 01:52:00,
2013-05-03 21:02:00,52.0,51.0,29.84,NNE,32,3.0,13.0,97,0.00,,,0.66,,2013-05-04 02:02:00,
2013-05-03 21:11:00,52.0,51.0,29.84,NNE,32,3.0,13.0,97,0.00,,,0.66,,2013-05-04 02:11:00,
2013-05-03 21:21:00,52.0,51.0,29.84,NE,55,5.0,9.0,97,0.00,,,0.66,,2013-05-04 02:21:00,
2013-05-03 21:32:00,52.0,51.0,29.84,NE,55,5.0,9.0,97,0.00,,,0.66,,2013-05-04 02:32:00,
2013-05-03 21:41:00,52.0,51.0,29.84,NE,55,5.0,9.0,97,0.00,,,0.66,,2013-05-04 02:41:00,
2013-05-03 21:52:00,51.0,50.0,29.85,NNE,26,7.0,12.0,97,0.00,,,0.66,,2013-05-04 02:52:00,
2013-05-03 22:02:00,51.0,50.0,29.85,NNE,32,6.0,11.0,97,0.00,,,0.66,,2013-05-04 03:02:00,
2013-05-03 22:11:00,51.0,50.0,29.85,NNE,32,6.0,11.0,97,0.00,,,0.66,,2013-05-04 03:11:00,
2013-05-03 22:22:00,51.0,50.0,29.84,NNE,30,6.0,11.0,97,0.00,,,0.66,,2013-05-04 03:22:00,
2013-05-03 22:33:00,51.0,50.0,29.84,NNE,30,6.0,11.0,97,0.00,,,0.66,,2013-05-04 03:33:00,
2013-05-03 22:43:00,51.0,50.0,29.84,NNE,30,6.0,11.0,97,0.00,,,0.66,,2013-05-04 03:43:00,
2013-05-03 22:53:00,51.0,50.0,29.85,East,79,6.0,12.0,97,0.00,,,0.66,,2013-05-04 03:53:00,
2013-05-03 23:02:00,51.0,50.0,29.84,NNE,20,8.0,18.0,97,0.00,,,0.66,,2013-05-04 04:02:00,
2013-05-03 23:12:00,51.0,50.0,29.84,NNE,20,8.0,18.0,97,0.00,,,0.66,,2013-05-04 04:12:00,
2013-05-03 23:22:00,51.0,50.0,29.84,NNE,20,8.0,18.0,97,0.00,,,0.66,,2013-05-04 04:22:00,
2013-05-03 23:32:00,51.0,50.0,29.83,NE,56,6.0,15.0,97,0.00,,,0.66,,2013-05-04 04:32:00,
2013-05-03 23:42:00,51.0,50.0,29.83,NE,56,6.0,15.0,97,0.00,,,0.66,,2013-05-04 04:42:00,
2013-05-03 23:52:00,51.0,50.0,29.83,ENE,62,4.0,14.0,96,0.00,,,0.66,,2013-05-04 04:52:00,